Location: Roland
(31.1349°N, 85.4372°W)
Time: 04:42:32
(UTC+00:00)

Vanguard 2 Rocket - Pass Details

Date: 04 December 2021
Orbit: 554 x 3324 km, 32.9° (Epoch: 16 January)

Event Time Altitude Azimuth Distance (km) Brightness Sun altitude
Exits shadow 08:02:46 17° 188° (S) 5,707 10.8 -55.4°
Drops below altitude 10° 08:07:34 10° 176° (S) 6,255 11.1 -54.3°
Sets 08:14:08 0° 163° (SSE) 7,133 11.6 -52.9°
